www.pogodaiklimat.ru

Погода и климат >> Архив погоды >> Пакистан >> Сахивал


ПОГОДА в Сахивале

  • Прогноз погоды в Сахивале
  • Монитор погоды в Сахивале

АРХИВ ПОГОДЫ в Сахивале

Время (UTC), дата Ветер
(напр.,м/с)
 
Видим.   Явления Облачность Т
(С)
Тd
(С)
f
(%)
Тe
(С)
Тes
(С)
Комфортность P
(гПа)
Po
(гПа)
Тmin
(С)
Tmax
(С)
R
(мм)
R24
(мм)
S
(см)
21 16.08 штиль 0 2000 м дымка 8/4 1200 м
[Sc As op]
+26.5 +22.9 81 +35 +35 очень
душно
999.3 980.2
00 17.08 штиль 0 2000 м дымка 4/0 1200 м
[Ac trans]
+26.0 +23.1 84 +35 +35 очень
душно
999.1 979.9
03 17.08 штиль 0 2000 м дымка 4/0
[Ac trans]
+29.0 +25.5 81 +43 +48 опасность
перегрева
999.9 980.9 +25.8
06 17.08 СВ 2 4000 м дым 5/5 1200 м
[Sc diur, vesp]
+33.0 +26.1 67 +49 +58 опасность
перегрева
1000.2 981.6
09 17.08 4000 м дым н/о +34.0 +25.7 62 +49 +56 опасность
перегрева
998.8 980.2
12 17.08 В 4 4000 м дым 4/4 1200 м
[Sc diur, vesp]
+32.0 +26.5 73 +49 +50 опасность
перегрева
998.0 979.4 +34.5
15 17.08 штиль 0 4000 м дым 3/0
[Ac trans]
+28.0 +24.4 81 +39 +39 очень
душно
1000.2 981.2
18 17.08 В 2 4000 м дым 3/0
[Ac trans]
+26.5 +24.4 88 +37 +37 очень
душно
1001.1 982.1
21 17.08 штиль 0 4000 м дым 4/0
[Ac trans]
+26.0 +24.6 92 +37 +37 очень
душно
1000.5 981.4
03 18.08 штиль 0 2000 м дымка 3/0
[Ac trans]
+27.0 +23.4 81 +37 +43 очень
душно
1002.9 983.9 +24.0
06 18.08 штиль 0 4000 м дым ясно +32.5 +24.8 64 +46 +71 опасность
перегрева
1003.0 984.4
09 18.08 штиль 0 4000 м дым 5/3 1200 м
[Sc diur, vesp Ac trans]
+35.5 +25.1 55 +49 +62 опасность
перегрева
1001.6 983.0
12 18.08 штиль 0 4000 м дым 4/0
[Ac As]
+34.5 +25.5 60 +49 +52 опасность
перегрева
1000.7 982.1 +36.5
18 18.08 штиль 0 4000 м дым 4/0
[Ac As]
+29.5 +25.3 78 +43 +43 опасность
перегрева
1003.4 984.6
21 18.08 СЗ 20 2000 м гроза, пыльная буря {дождь} 10/6 900 м
[Cb calv As op]
+26.5 +23.6 84 +36 +36 очень
душно
1005.2 986.0 0.0
00 19.08 Ю 5 4000 м в посл. час дождь {гроза} 9/4 1200 м
[Sc As op]
+24.0 +21.0 83 +30 +30 очень
душно
1002.9 983.7 9
03 19.08 С 3 4000 м дым 3/0
[Ac trans]
+25.0 +21.3 80 +32 +35 очень
душно
1005.8 986.6 +22.0
06 19.08 штиль 0 4000 м дым 3/0
[Ac trans]
+31.0 +24.6 69 +44 +64 опасность
перегрева
1005.8 987.0
09 19.08 штиль 0 4000 м дым 3/0
[Ac trans]
+35.0 +25.3 57 +49 +67 опасность
перегрева
1004.7 986.0
12 19.08 штиль 0 4000 м дым 3/0
[Ac trans]
+35.0 +25.3 57 +49 +52 опасность
перегрева
1003.7 985.1 +35.7
15 19.08 штиль 0 4000 м дым ясно +33.0 +24.6 61 +46 +46 опасность
перегрева
1003.8 985.0
18 19.08 штиль 0 4000 м дым ясно +31.0 +23.9 66 +43 +43 опасность
перегрева
1005.3 986.5
21 19.08 штиль 0 4000 м дым ясно +29.0 +23.2 71 +39 +39 очень
душно
1004.8 985.8
00 20.08 штиль 0 4000 м дым 4/0
[Ac trans]
+28.0 +22.9 74 +37 +37 очень
душно
1004.3 985.3
03 20.08 штиль 0 4000 м дым ясно +30.0 +24.3 72 +42 +50 опасность
перегрева
1005.3 986.5 +24.9
06 20.08 штиль 0 4000 м дым 8/4 1200 м
[Sc Ac As]
+34.0 +24.9 59 +47 +55 опасность
перегрева
1006.1 987.3
09 20.08 СЗ 2 4000 м дым 5/5 1200 м
[Sc diur, vesp]
+36.0 +24.9 53 +49 +57 опасность
перегрева
1004.2 985.6
12 20.08 СЗ 2 4000 м дым ясно +35.0 +25.3 57 +49 +52 опасность
перегрева
1002.3 983.5 +36.4
15 20.08 штиль 0 4000 м дым ясно +33.0 +24.6 61 +46 +46 опасность
перегрева
1001.8 983.1
18 20.08 штиль 0 4000 м дым ясно +32.0 +24.2 63 +44 +44 опасность
перегрева
1002.2 983.4
21 20.08 штиль 0 4000 м дым ясно +31.0 +24.6 69 +44 +44 опасность
перегрева
1001.6 982.8
00 21.08 штиль 0 4000 м дым ясно +28.0 +23.7 77 +38 +38 очень
душно
1001.7 982.7
03 21.08 штиль 0 4000 м дым ясно +30.0 +25.1 75 +43 +51 опасность
перегрева
1002.5 983.7 +27.4
06 21.08 ЮЗ 3 4000 м дым ясно +35.0 +24.5 55 +48 +63 опасность
перегрева
1002.6 984.0
09 21.08 ЮЗ 2 4000 м дым 3/3 1200 м
[Sc diur, vesp]
+36.0 +24.0 50 +47 +58 опасность
перегрева
1002.2 983.7
12 21.08 ЮЗ 3 4000 м дым ясно +36.0 +24.0 50 +47 +50 опасность
перегрева
1000.4 982.0 +37.0
15 21.08 штиль 0 4000 м дым ясно +34.0 +24.1 56 +46 +46 опасность
перегрева
1000.5 981.9
18 21.08 штиль 0 4000 м дым ясно +32.0 +24.2 63 +44 +44 опасность
перегрева
1001.1 982.3
21 21.08 штиль 0 4000 м дым ясно +31.0 +24.6 69 +44 +44 опасность
перегрева
1000.6 981.8
00 22.08 штиль 0 4000 м дым ясно +28.0 +23.7 77 +38 +38 очень
душно
1001.7 982.7
03 22.08 штиль 0 4000 м дым ясно +30.0 +24.3 72 +42 +49 опасность
перегрева
1002.5 983.7 +26.5
06 22.08 ЮЗ 2 4000 м дым ясно +34.0 +25.7 62 +49 +67 опасность
перегрева
1003.1 984.5
09 22.08 СЗ 2 4000 м дым 4/3 1200 м
[Sc diur, vesp]
+37.0 +26.2 54 +53 +63 опасность
перегрева
1001.3 982.8
12 22.08 штиль 0 4000 м дым 4/4 1200 м
[Sc diur, vesp]
+37.5 +25.8 51 +52 +54 опасность
перегрева
999.9 981.5 +38.0
15 22.08 штиль 0 4000 м дым ясно +35.0 +26.1 60 +51 +51 опасность
перегрева
1000.4 981.8
18 22.08 штиль 0 4000 м дым ясно +33.0 +25.3 64 +47 +47 опасность
перегрева
1001.4 982.8
21 22.08 штиль 0 4000 м дым ясно +31.5 +26.0 73 +47 +47 опасность
перегрева
1000.4 981.6
00 23.08 штиль 0 4000 м дым ясно +29.0 +25.5 81 +43 +43 опасность
перегрева
1001.8 982.8
03 23.08 штиль 0 4000 м дым ясно +31.5 +26.7 76 +49 +56 опасность
перегрева
1003.0 984.2 +28.5
06 23.08 ЮВ 2 4000 м дым ясно +36.0 +24.9 53 +49 +67 опасность
перегрева
1002.3 983.9
09 23.08 штиль 0 4000 м дым 4/4 1200 м
[Sc diur, vesp]
+37.0 +26.0 53 +52 +65 опасность
перегрева
1000.9 982.4
12 23.08 ЮЗ 2 4000 м дым 4/4 1200 м
[Sc diur, vesp]
+37.0 +25.2 51 +51 +52 опасность
перегрева
999.7 981.3 +38.0
15 23.08 штиль 0 4000 м дым {гроза} 3/0
[Ac trans]
+32.0 +26.5 73 +49 +49 опасность
перегрева
1000.3 981.5 0.0

 

Местоположение метеостанции Сахивал (Пакистан): широта 30.66 долгота 73.02 высота над уровнем моря 169 м.

В архиве по умолчанию представлена погода в Сахивале за последнюю неделю. Архивные данные за месяц целиком и за предыдущие месяцы, начиная с января 2011 года, Вы можете получить, выбрав интересующий диапазон дат из раскрывающегося списка и нажав кнопку "Ввод!".


*Определитесь, кто Вы:
робот инопланетянин человек

Внимание! Время в таблицах - всемирное. Для получения местного времени необходимо прибавить поправку, которая равна 5 ч.

Смотрите также архив погоды в соседних городах и на ближайших метеорологических станциях:

Погода в Окаре (Пакистан) (42 км)
Погода в Тоба Тек Сингх (Пакистан) (63 км)
Погода на Авиабазе Raifiqui (Пакистан) (80 км)
Погода в Бахавалнагаре (Пакистан) (82 км)
Погода в Фейсалабаде (Пакистан) (86 км)
Погода в Джанге (Пакистан) (95 км)
Погода в Ханевале (Пакистан) (115 км)
Погода в Шри-Ганганагаре (Раджастхан, Индия) (117 км)
Погода в Касуре (Пакистан) (147 км)
Погода в Саргодхе (Пакистан) (158 км)

Пояснения к столбцам:

Ветер - указаны скорость ветра в м/с - средняя за 10 мин, порывы в срок и между сроками (в фигурных скобках) и направление, откуда дует ветер: С - северный, СВ - северо-восточный, В - восточный, ЮВ - юго-восточный, Ю - южный, ЮЗ - юго-западный, З - западный, СЗ - северо-западный.
Видимость - горизонтальная дальность видимости в метрах или километрах. При видимости от 1 до 10 км при отсутствии осадков обычно наблюдается дымка, при ухудшении видимости до 1 км и менее - туман. В сухую погоду видимость может ухудшаться дымом, пылью или мглою.
Явления - указаны атмосферные явления, наблюдавшиеся в срок или в последний час перед сроком; фигурными скобками обозначены явления, наблюдавшиеся между сроками (за 1-3 часа до срока); квадратными скобками обозначены град или гололедные отложения с указанием их диаметра в мм.
Облачность - указаны через наклонную черту общая и нижняя облачность в баллах и высота нижней границы облаков в метрах; квадратными скобками обозначены формы облаков: Ci - перистые, Cs - перисто-слоистые, Cc - перисто-кучевые, Ac - высококучевые, As - высокослоистые, Sc - слоисто-кучевые, Ns - слоисто-дождевые, Cu - кучевые, Cb - кучево-дождевые. Подробнее классификацию облаков см. в Атласе облаков (PDF).
T - Температура воздуха - температура, измеренная на высоте 2 м над землей.
Td - Температура точки росы - температура, при понижении до которой содержащийся в воздухе водяной пар достигнет насыщения.
f - Относительная влажность воздуха - влажноcть воздуха, измеренная на высоте 2 м над землей.
Te - Эффективная температура - температура, которую ощущает одетый по сезону человек в тени. Характеристика душности погоды. При расчете учитывается влияние влажности воздуха и скорости ветра на теплоощущения человека.
Tes - Эффективная температура на солнце - температура, которую ощущает человек, с поправкой на солнечный нагрев. Характеристика знойности погоды. Зависит от высоты солнца над горизонтом, облачности и скорости ветра. Ночью, в пасмурную погоду, а также при ветре 12 м/с и более поправка равна нулю.
P - Атмосферное давление - приведенное к уровню моря атмосферное давление.
Po - Атмосферное давление - измеренное на уровне метеостанции атмосферное давление.
Tmin - Минимальная температура - минимум температуры воздуха на высоте 2 м над землей.
Tmax - Максимальная температура - максимум температуры воздуха на высоте 2 м над землей.
R - Количество осадков - Количество выпавших осадков за период времени, мм. При наведении курсора мыши на число - период времени, за который выпало указанное количество осадков.
R24 - Количество осадков - Количество выпавших осадков за 24 часа, мм.
S - Снежный покров - Высота снежного покрова, см. При наведении курсора мыши на число - состояние снежного покрова и степень покрытия местности в баллах.